SCP
0 0 -0 -0 -0 0 0 -0 -0 -0 -0 -0 -0 -0 -0 -0 -0 0 0 0 -0 -0 0 0 0 0 0 0 0 0 0 0 0
0 0 0 0 0 -0 -0 -0 -0 -0 -0 -0 -0 -0 -0 -0 -0 -0 0 0 -0 0 -0 -0 0 0 0 0 0 0 0 0 0
0 0 0 0 0 -0 -0 -0 -0 -0 -0 -0 -0 -0 -0 -0 -0 -0 0 -0 -0 -0 -0 -0 -0 -0 -0 0 0 0 0 0 0
0 0 0 0 0 0 0 -0 -0 -0 -0 -0 -0 -0 -0 0 0 0 -0 -0 -0 -0 -0 -0 -0 -0 -0 -0 -0 0 0 0 0
0 0 0 0 0 0 0 0 0 0 -0 -0 -0 0 -0 -0 0 0 -0 0 -0 0 0 -0 -0 -0 -0 -0 -0 -0 -0 -0 0
0 0 0 0 0 0 0 0 0 0 0 0 0 0 -0 -0 -0 -0 -0 0 0 0 0 0 0 0 -0 -0 0 -0 -0 -0 0
0 0 0 0 0 0 0 0 0 0 0 0 0 0 0 -0 -0 -0 -0 0 0 0 0 0 0 0 0 0 -0 0 0 0 0
0 0 0 0 0 0 0 0 0 0 0 0 0 0 0 0 0 -0 0 -0 -0 -0 0 0 0 0 0 0 0 0 0 0 0
0 0 0 0 0 0 0 0 0 0 0 0 0 0 0 0 0 0 0 0 0 0 0 0 0 0 0 0 0 0 0 0 0
0 0 0 0 0 0 0 0 0 0 0 0 0 0 0 0 0 0 0 0 0 0 0 0 0 0 0 0 0 0 0 0 0
0 0 0 0 0 0 0 0 0 0 0 0 0 0 0 0 0 0 0 0 0 0 0 0 0 0 0 0 0 0 0 0 0
0 0 0 0 0 0 0 0 0 0 0 0 0 0 0 0 0 0 0 0 0 0 0 0 0 0 0 0 0 0 0 0 0
0 0 0 0 0 0 0 0 0 0 0 0 0 0 0 0 0 0 0 0 0 0 0 0 -0 -0 0 0 0 0 0 0 0
0 0 0 0 0 0 0 0 0 0 0 0 0 0 0 0 0 0 0 0 0 0 0 0 0 -0 -0 0 0 0 0 0 0
0 0 0 0 0 0 0 0 0 0 0 0 0 0 0 0 0 0 0 0 0 0 0 0 0 0 0 0 0 0 0 0 0
0 0 0 0 0 0 0 0 0 0 0 0 0 0 0 0 0 0 0 0 0 0 0 0 0 0 0 0 0 0 0 0 0
0 0 0 0 0 0 0 0 0 0 0 0 0 0 0 0 0 0 0 0 0 0 0 0 0 0 0 0 0 0 0 0 0
0 0 0 0 0 0 0 0 0 0 0 0 0 0 0 0 0 0 0 0 0 0 0 0 0 0 0 0 0 0 0 0 0
0 0 0 0 0 0 0 0 0 0 0 0 0 0 0 0 0 0 0 0 0 0 0 0 0 0 0 0 0 0 0 0 0
0 0 0 0 0 0 0 0 0 0 0 0 0 0 0 0 0 0 0 0 0 0 0 0 0 0 0 0 0 0 0 0 0
Wind_Speed_500mb
21 21 21 22 23 24 28 28 23 25 27 29 25 18 12 10 10 14 20 21 16 18 17 20 19 23 29 25 27 31 19 23 23
17 19 21 22 23 22 22 23 23 24 28 30 27 21 15 10 12 16 18 20 18 20 21 19 20 27 22 25 22 22 14 21 17
17 18 19 21 21 21 21 21 22 25 29 32 31 27 20 16 14 16 25 23 22 22 20 18 19 21 14 16 18 16 12 20 21
14 15 17 18 17 16 17 21 20 22 27 29 31 31 23 18 18 21 26 21 24 23 21 23 17 15 21 13 15 14 21 23 22
9 10 12 14 16 17 19 20 19 20 23 25 28 31 28 24 17 16 25 18 18 18 22 16 20 23 21 20 13 17 19 26 10
7 9 12 13 12 13 14 16 17 18 20 23 26 28 28 25 20 19 19 19 18 20 14 16 17 17 16 22 23 19 16 15 20
4 5 7 9 11 12 14 15 16 16 17 19 22 23 24 24 21 20 15 16 17 18 19 19 13 17 17 17 18 14 14 15 15
6 7 7 8 10 12 12 12 13 15 16 18 18 19 19 20 20 18 16 14 13 16 13 16 17 17 16 16 14 17 19 17 17
11 11 11 11 11 11 12 12 14 15 16 16 18 18 18 17 17 15 14 12 13 10 12 14 13 12 15 16 16 18 16 16 16
14 14 14 15 15 15 16 15 15 16 16 17 17 16 16 16 15 15 13 13 13 10 7 10 11 9 14 15 14 12 14 17 19
17 18 18 19 19 19 19 20 20 20 20 21 21 20 18 17 16 14 13 10 11 11 8 9 12 9 9 12 11 12 14 17 13
21 21 21 23 24 23 22 22 22 23 24 24 25 25 24 22 21 19 16 15 13 13 12 10 12 11 9 10 10 13 15 18 15
25 24 24 27 27 26 26 26 25 27 27 26 27 29 29 27 26 25 22 20 16 14 14 14 15 15 12 12 10 10 14 17 9
29 28 28 30 30 30 30 29 29 29 30 31 32 33 33 33 32 28 27 24 21 19 17 17 19 17 17 17 16 13 16 16 14
34 33 32 35 34 32 32 33 33 32 33 33 33 32 33 32 32 31 30 27 25 23 20 19 21 22 22 22 23 21 21 17 14
37 36 35 38 37 36 37 37 36 35 34 37 36 31 34 29 27 28 28 28 29 27 25 24 24 26 25 26 26 24 25 21 19
36 37 36 39 41 39 40 40 40 39 34 35 35 18 25 21 11 16 22 28 30 29 28 27 28 29 30 30 30 28 26 26 22
38 39 39 40 44 44 42 43 43 41 41 36 26 14 10 23 32 21 24 28 25 27 30 33 32 34 34 34 31 30 28 26 27
43 44 44 45 47 49 46 46 47 46 45 43 42 39 41 23 21 23 23 30 40 35 33 32 39 40 38 36 33 30 29 29 29
50 50 49 50 51 50 50 51 52 53 50 51 50 47 47 48 48 46 44 41 40 43 45 45 44 41 43 39 35 32 30 29 29
Wind_Direction_500mb
64 60 59 60 48 56 55 50 46 52 43 36 36 43 58 74 71 69 83 59 27 34 58 53 52 46 47 45 58 45 42 48 49
63 59 58 52 56 45 51 52 46 40 35 37 33 33 37 46 54 64 56 41 40 43 45 54 52 46 56 44 43 48 45 38 46
35 37 42 49 50 44 45 49 40 27 27 30 34 33 38 51 71 71 55 43 47 47 54 50 63 49 54 58 50 38 31 40 43
26 30 28 35 38 34 30 27 31 21 21 26 31 37 48 63 82 71 57 50 46 48 48 54 53 57 41 52 29 25 46 27 57
18 22 23 17 13 9 8 13 18 17 15 20 29 37 43 48 52 65 51 48 41 43 44 53 49 44 40 36 38 42 76 40 54
360 360 352 359 2 1 359 1 5 9 11 14 20 29 36 42 41 42 60 40 37 38 42 48 46 42 44 35 29 37 44 37 29
333 334 337 342 344 348 349 351 355 359 357 1 12 17 25 34 36 35 54 73 35 32 30 29 45 31 28 28 28 24 33 29 21
306 314 324 327 332 335 335 337 337 339 345 349 354 5 11 20 26 28 37 52 60 35 25 27 25 25 20 19 5 20 25 11 17
304 311 314 319 318 319 320 319 322 322 327 333 339 344 351 357 6 15 26 37 35 52 30 29 22 20 11 4 8 12 12 359 11
296 299 303 306 308 310 311 309 310 313 315 318 322 325 327 332 338 347 356 10 13 25 46 22 16 29 1 1 359 349 356 1 356
291 294 297 297 300 301 305 310 310 310 311 312 313 314 314 313 312 317 325 334 0 10 28 21 10 12 357 353 342 335 335 354 351
291 290 291 290 293 296 298 299 301 300 302 304 307 308 307 307 301 299 305 316 329 348 349 344 341 355 347 337 326 331 347 350 7
287 288 287 286 289 291 292 293 295 296 295 295 298 300 300 299 296 290 291 298 306 316 336 339 343 339 333 327 302 317 326 341 346
286 286 284 283 285 287 289 290 290 291 293 295 295 298 297 295 293 289 279 282 292 299 318 334 337 333 331 322 311 303 310 328 328
285 285 285 283 283 285 286 286 288 292 294 294 294 294 293 290 285 284 275 274 282 288 292 312 326 327 324 321 312 299 297 312 311
284 285 284 284 284 283 281 285 289 291 296 300 300 300 289 283 280 273 268 267 272 278 284 292 305 318 316 316 311 300 291 294 302
286 285 285 283 283 280 280 282 285 288 292 294 306 310 304 282 288 284 268 273 273 277 277 287 296 305 310 310 308 305 296 286 290
284 284 282 280 280 280 278 277 278 281 283 282 278 293 264 286 291 276 274 272 274 279 280 282 289 299 300 303 301 301 297 288 284
281 282 282 279 277 276 277 275 275 274 276 276 272 269 268 281 292 281 269 271 282 277 274 278 286 291 292 295 293 294 294 294 285
279 278 278 277 276 276 274 272 272 271 270 271 273 270 267 264 263 278 285 277 276 277 278 281 282 282 286 287 283 286 291 293 287
Wind_Speed_850mb
21 21 21 22 23 24 28 28 23 25 27 29 25 18 12 10 10 14 20 21 16 18 17 20 19 23 29 25 27 31 19 23 23
17 19 21 22 23 22 22 23 23 24 28 30 27 21 15 10 12 16 18 20 18 20 21 19 20 27 22 25 22 22 14 21 17
17 18 19 21 21 21 21 21 22 25 29 32 31 27 20 16 14 16 25 23 22 22 20 18 19 21 14 16 18 16 12 20 21
14 15 17 18 17 16 17 21 20 22 27 29 31 31 23 18 18 21 26 21 24 23 21 23 17 15 21 13 15 14 21 23 22
9 10 12 14 16 17 19 20 19 20 23 25 28 31 28 24 17 16 25 18 18 18 22 16 20 23 21 20 13 17 19 26 10
7 9 12 13 12 13 14 16 17 18 20 23 26 28 28 25 20 19 19 19 18 20 14 16 17 17 16 22 23 19 16 15 20
4 5 7 9 11 12 14 15 16 16 17 19 22 23 24 24 21 20 15 16 17 18 19 19 13 17 17 17 18 14 14 15 15
6 7 7 8 10 12 12 12 13 15 16 18 18 19 19 20 20 18 16 14 13 16 13 16 17 17 16 16 14 17 19 17 17
11 11 11 11 11 11 12 12 14 15 16 16 18 18 18 17 17 15 14 12 13 10 12 14 13 12 15 16 16 18 16 16 16
14 14 14 15 15 15 16 15 15 16 16 17 17 16 16 16 15 15 13 13 13 10 7 10 11 9 14 15 14 12 14 17 19
17 18 18 19 19 19 19 20 20 20 20 21 21 20 18 17 16 14 13 10 11 11 8 9 12 9 9 12 11 12 14 17 13
21 21 21 23 24 23 22 22 22 23 24 24 25 25 24 22 21 19 16 15 13 13 12 10 12 11 9 10 10 13 15 18 15
25 24 24 27 27 26 26 26 25 27 27 26 27 29 29 27 26 25 22 20 16 14 14 14 15 15 12 12 10 10 14 17 9
29 28 28 30 30 30 30 29 29 29 30 31 32 33 33 33 32 28 27 24 21 19 17 17 19 17 17 17 16 13 16 16 14
34 33 32 35 34 32 32 33 33 32 33 33 33 32 33 32 32 31 30 27 25 23 20 19 21 22 22 22 23 21 21 17 14
37 36 35 38 37 36 37 37 36 35 34 37 36 31 34 29 27 28 28 28 29 27 25 24 24 26 25 26 26 24 25 21 19
36 37 36 39 41 39 40 40 40 39 34 35 35 18 25 21 11 16 22 28 30 29 28 27 28 29 30 30 30 28 26 26 22
38 39 39 40 44 44 42 43 43 41 41 36 26 14 10 23 32 21 24 28 25 27 30 33 32 34 34 34 31 30 28 26 27
43 44 44 45 47 49 46 46 47 46 45 43 42 39 41 23 21 23 23 30 40 35 33 32 39 40 38 36 33 30 29 29 29
50 50 49 50 51 50 50 51 52 53 50 51 50 47 47 48 48 46 44 41 40 43 45 45 44 41 43 39 35 32 30 29 29
Wind_Direction_850mb
64 60 59 60 48 56 55 50 46 52 43 36 36 43 58 74 71 69 83 59 27 34 58 53 52 46 47 45 58 45 42 48 49
63 59 58 52 56 45 51 52 46 40 35 37 33 33 37 46 54 64 56 41 40 43 45 54 52 46 56 44 43 48 45 38 46
35 37 42 49 50 44 45 49 40 27 27 30 34 33 38 51 71 71 55 43 47 47 54 50 63 49 54 58 50 38 31 40 43
26 30 28 35 38 34 30 27 31 21 21 26 31 37 48 63 82 71 57 50 46 48 48 54 53 57 41 52 29 25 46 27 57
18 22 23 17 13 9 8 13 18 17 15 20 29 37 43 48 52 65 51 48 41 43 44 53 49 44 40 36 38 42 76 40 54
360 360 352 359 2 1 359 1 5 9 11 14 20 29 36 42 41 42 60 40 37 38 42 48 46 42 44 35 29 37 44 37 29
333 334 337 342 344 348 349 351 355 359 357 1 12 17 25 34 36 35 54 73 35 32 30 29 45 31 28 28 28 24 33 29 21
306 314 324 327 332 335 335 337 337 339 345 349 354 5 11 20 26 28 37 52 60 35 25 27 25 25 20 19 5 20 25 11 17
304 311 314 319 318 319 320 319 322 322 327 333 339 344 351 357 6 15 26 37 35 52 30 29 22 20 11 4 8 12 12 359 11
296 299 303 306 308 310 311 309 310 313 315 318 322 325 327 332 338 347 356 10 13 25 46 22 16 29 1 1 359 349 356 1 356
291 294 297 297 300 301 305 310 310 310 311 312 313 314 314 313 312 317 325 334 0 10 28 21 10 12 357 353 342 335 335 354 351
291 290 291 290 293 296 298 299 301 300 302 304 307 308 307 307 301 299 305 316 329 348 349 344 341 355 347 337 326 331 347 350 7
287 288 287 286 289 291 292 293 295 296 295 295 298 300 300 299 296 290 291 298 306 316 336 339 343 339 333 327 302 317 326 341 346
286 286 284 283 285 287 289 290 290 291 293 295 295 298 297 295 293 289 279 282 292 299 318 334 337 333 331 322 311 303 310 328 328
285 285 285 283 283 285 286 286 288 292 294 294 294 294 293 290 285 284 275 274 282 288 292 312 326 327 324 321 312 299 297 312 311
284 285 284 284 284 283 281 285 289 291 296 300 300 300 289 283 280 273 268 267 272 278 284 292 305 318 316 316 311 300 291 294 302
286 285 285 283 283 280 280 282 285 288 292 294 306 310 304 282 288 284 268 273 273 277 277 287 296 305 310 310 308 305 296 286 290
284 284 282 280 280 280 278 277 278 281 283 282 278 293 264 286 291 276 274 272 274 279 280 282 289 299 300 303 301 301 297 288 284
281 282 282 279 277 276 277 275 275 274 276 276 272 269 268 281 292 281 269 271 282 277 274 278 286 291 292 295 293 294 294 294 285
279 278 278 277 276 276 274 272 272 271 270 271 273 270 267 264 263 278 285 277 276 277 278 281 282 282 286 287 283 286 291 293 287